DW7744 Weather Reports


time (UTC)temp
F
wind
direction
speed
knots
gust
knots
rain 1hr
in
rain 24hr
in
rain mn
in
humidity
%
barometer
mb
20260502214403 64 220 5.2 8.7 0.00 0.00 0.00 54 946.2
20260502213904 64 237 3.5 8.7 0.00 0.00 0.00 53 946.1
20260502212903 64 230 0.9 2.6 0.00 0.00 0.00 52 946.1
20260502212403 64 126 0.9 2.6 0.00 0.00 0.00 51 946.1
20260502211903 64 126 0.9 2.6 0.00 0.00 0.00 50 946.1
20260502211404 65 230 0.9 1.7 0.00 0.00 0.00 49 946.1
20260502210904 65 230 0.9 1.7 0.00 0.00 0.00 49 946.2
20260502210404 65 230 0.9 1.7 0.00 0.00 0.00 49 946.2
20260502205904 65 230 1.7 1.7 0.00 0.00 0.00 48 946.2
20260502205404 65 230 1.7 2.6 0.00 0.00 0.00 48 946.3
20260502204904 65 231 1.7 2.6 0.00 0.00 0.00 47 946.3
20260502204403 66 227 1.7 2.6 0.00 0.00 0.00 47 946.3
20260502203904 66 224 0.9 2.6 0.00 0.00 0.00 46 946.3
20260502202903 66 206 0.9 1.7 0.00 0.00 0.00 46 946.3
20260502202404 66 206 0.9 1.7 0.00 0.00 0.00 44 946.4
20260502201904 66 205 0.9 2.6 0.00 0.00 0.00 44 946.4
20260502201403 66 206 0.9 2.6 0.00 0.00 0.00 45 946.4
20260502200403 66 121 0.0 1.7 0.00 0.00 0.00 45 946.4
20260502195903 66 119 0.9 1.7 0.00 0.00 0.00 44 946.4
20260502195404 66 119 1.7 2.6 0.00 0.00 0.00 44 946.5
20260502194903 67 119 1.7 2.6 0.00 0.00 0.00 44 946.5
20260502194404 67 117 1.7 2.6 0.00 0.00 0.00 45 946.5
20260502193404 67 111 0.9 1.7 0.00 0.00 0.00 44 946.4
20260502192904 68 131 1.7 1.7 0.00 0.00 0.00 43 946.4
20260502192404 68 129 1.7 1.7 0.00 0.00 0.00 43 946.5
20260502191903 69 129 1.7 2.6 0.00 0.00 0.00 43 946.5
20260502191403 69 191 0.9 2.6 0.00 0.00 0.00 42 946.5
20260502190903 70 192 0.9 2.6 0.00 0.00 0.00 41 946.4
20260502190404 70 91 0.0 1.7 0.00 0.00 0.00 42 946.4
20260502185904 71 91 0.0 1.7 0.00 0.00 0.00 42 946.4
20260502185404 71 91 0.0 1.7 0.00 0.00 0.00 41 946.3
20260502184903 71 91 0.0 1.7 0.00 0.00 0.00 41 946.3
20260502182904 73 4 0.9 1.7 0.00 0.00 0.00 39 946.2
20260502182403 74 3 0.0 1.7 0.00 0.00 0.00 38 946.1
20260502180403 77 14 0.0 1.7 0.00 0.00 0.00 34 946.0
20260502170405 87 39 0.0 1.7 0.00 0.00 0.00 27 946.1
20260502163904 86 341 1.7 2.6 0.00 0.00 0.00 28 946.3
20260502162903 86 5 0.9 1.7 0.00 0.00 0.00 29 946.3
20260502162403 86 6 1.7 4.3 0.00 0.00 0.00 28 946.6
20260502161904 86 280 1.7 4.3 0.00 0.00 0.00 28 946.6
20260502161403 85 44 1.7 4.3 0.00 0.00 0.00 28 946.6
20260502160903 85 337 1.7 4.3 0.00 0.00 0.00 29 946.7
20260502160404 85 326 1.7 2.6 0.00 0.00 0.00 29 946.7
20260502151904 85 99 1.7 2.6 0.00 0.00 0.00 31 947.0
20260502151404 85 100 1.7 2.6 0.00 0.00 0.00 31 947.0
20260502150904 85 325 1.7 2.6 0.00 0.00 0.00 31 947.1
20260502150403 85 344 1.7 2.6 0.00 0.00 0.00 30 947.1
20260502123404 80 112 2.6 4.3 0.00 0.00 0.00 32 949.2
20260502122404 80 112 1.7 4.3 0.00 0.00 0.00 35 949.5
20260502121904 80 122 1.7 4.3 0.00 0.00 0.00 34 949.5
20260502120403 80 99 1.7 2.6 0.00 0.00 0.00 37 949.7
20260502115904 80 84 1.7 2.6 0.00 0.00 0.00 40 949.7
20260502115403 79 67 1.7 2.6 0.00 0.00 0.00 40 949.9
20260502114903 79 79 1.7 4.3 0.00 0.00 0.00 40 949.9
20260502114403 79 99 1.7 4.3 0.00 0.00 0.00 40 949.9
20260502113903 78 74 1.7 4.3 0.00 0.00 0.00 42 950.2
20260502113403 78 15 1.7 2.6 0.00 0.00 0.00 42 950.2
20260502111403 76 72 1.7 4.3 0.00 0.00 0.00 45 950.4
20260502110904 76 79 1.7 4.3 0.00 0.00 0.00 47 950.5
20260502110403 75 90 1.7 4.3 0.00 0.00 0.00 49 950.5
20260502105904 74 87 1.7 4.3 0.00 0.00 0.00 49 950.5
20260502105404 73 85 1.7 4.3 0.00 0.00 0.00 51 950.7
20260502104403 72 101 1.7 4.3 0.00 0.00 0.00 52 950.7
20260502103903 71 84 1.7 4.3 0.00 0.00 0.00 53 950.8
20260502103403 71 83 1.7 4.3 0.00 0.00 0.00 55 950.8
20260502102903 70 91 1.7 4.3 0.00 0.00 0.00 55 950.8
20260502102404 69 99 0.9 2.6 0.00 0.00 0.00 56 951.0
20260502101404 68 272 1.7 4.3 0.00 0.00 0.00 55 951.0
20260502100904 68 5 1.7 2.6 0.00 0.00 0.00 56 951.2
20260502100403 68 339 4.3 6.1 0.00 0.00 0.00 57 951.2
20260502091404 66 87 1.7 4.3 0.00 0.00 0.00 61 951.5
20260502090904 66 79 1.7 4.3 0.00 0.00 0.00 63 951.7
20260502090403 65 112 2.6 4.3 0.00 0.00 0.00 64 951.7
20260502071404 58 105 1.7 4.3 0.00 0.00 0.00 72 951.8
20260502070903 58 104 1.7 4.3 0.00 0.00 0.00 73 951.8
20260502070404 58 115 1.7 1.7 0.00 0.00 0.00 73 951.8
20260502065904 58 115 1.7 1.7 0.00 0.00 0.00 73 951.8
20260502064404 57 110 1.7 4.3 0.00 0.00 0.00 72 951.8
20260502063904 57 84 1.7 4.3 0.00 0.00 0.00 71 951.8
20260502063404 57 85 1.7 4.3 0.00 0.00 0.00 71 951.8
20260502062903 57 105 1.7 1.7 0.00 0.00 0.00 72 951.8
20260502062403 57 105 1.7 1.7 0.00 0.00 0.00 73 951.7
20260502061904 56 105 1.7 2.6 0.00 0.00 0.00 73 951.7
20260502061404 56 104 1.7 2.6 0.00 0.00 0.00 72 951.7
20260502060903 56 129 1.7 2.6 0.00 0.00 0.00 70 951.7
20260502060404 56 129 1.7 2.6 0.00 0.00 0.00 70 951.7
20260502055904 56 125 1.7 2.6 0.00 0.00 0.00 71 951.7
20260502055404 56 126 0.9 1.7 0.00 0.00 0.00 72 951.7
20260502054904 56 126 0.9 1.7 0.00 0.00 0.00 71 951.7
20260502054404 55 126 1.7 1.7 0.00 0.00 0.00 71 951.7
20260502053904 55 126 1.7 4.3 0.00 0.00 0.00 71 951.7
20260502052903 55 137 0.0 1.7 0.00 0.00 0.00 70 951.7
20260502052403 55 137 0.0 1.7 0.00 0.00 0.00 69 951.6
20260502051904 55 137 0.0 1.7 0.00 0.00 0.00 71 951.6
20260502051403 54 137 0.0 0.9 0.00 0.00 0.00 71 951.6
20260502050904 54 137 0.0 0.0 0.00 0.00 0.00 71 951.4
20260502050404 54 141 0.0 0.9 0.00 0.00 0.00 71 951.4
20260502045904 53 141 0.0 1.7 0.00 0.00 0.00 71 951.4
20260502045404 53 128 1.7 2.6 0.00 0.00 0.00 71 951.4
20260502044904 53 128 1.7 4.3 0.00 0.00 0.00 71 951.4
20260502044403 53 130 0.9 4.3 0.00 0.00 0.00 70 951.4
20260502043903 53 130 0.9 4.3 0.00 0.00 0.00 70 951.5
20260502043403 53 229 0.0 1.7 0.00 0.00 0.00 70 951.5
20260502042403 52 229 1.7 1.7 0.00 0.00 0.00 69 951.5
20260502041904 53 229 1.7 1.7 0.00 0.00 0.00 70 951.5
20260502041404 53 229 0.0 1.7 0.00 0.00 0.00 70 951.5
20260502040903 53 229 0.0 0.0 0.00 0.00 0.00 69 951.4
20260502034403 53 231 1.7 4.3 0.00 0.00 0.00 68 951.4
20260502033903 53 230 1.7 4.3 0.00 0.00 0.00 68 951.4
20260502033404 53 229 1.7 4.3 0.00 0.00 0.00 68 951.4
20260502032904 53 230 1.7 4.3 0.00 0.00 0.00 67 951.4
20260502032403 53 233 0.0 4.3 0.00 0.00 0.00 67 951.4
20260502031903 54 230 0.0 2.6 0.00 0.00 0.00 66 951.4
20260502031403 54 136 0.0 0.0 0.00 0.00 0.00 65 951.4
20260502030903 54 136 0.0 1.7 0.00 0.00 0.00 66 951.4
20260502030404 54 136 1.7 1.7 0.00 0.00 0.00 66 951.4
20260502025903 54 136 1.7 1.7 0.00 0.00 0.00 65 951.4
20260502024904 54 186 0.9 1.7 0.00 0.00 0.00 66 951.4
20260502024403 54 184 1.7 4.3 0.00 0.00 0.00 65 951.4
20260502023903 53 180 1.7 4.3 0.00 0.00 0.00 66 951.4
20260502022904 54 183 0.9 2.6 0.00 0.00 0.00 64 951.4
20260502022404 54 228 1.7 1.7 0.00 0.00 0.00 63 951.4
20260502021903 54 228 1.7 1.7 0.00 0.00 0.00 62 951.4
20260502021403 54 228 1.7 1.7 0.00 0.00 0.00 62 951.4
20260502020903 54 228 1.7 1.7 0.00 0.00 0.00 62 951.5
20260502015903 54 228 1.7 4.3 0.00 0.00 0.00 59 951.5
20260502015404 54 229 2.6 4.3 0.00 0.00 0.00 59 951.5
20260502014904 54 229 2.6 4.3 0.00 0.00 0.00 59 951.5
20260502014404 54 225 2.6 4.3 0.00 0.00 0.00 56 951.5
20260502013904 54 236 2.6 4.3 0.00 0.00 0.00 57 951.5
20260502013404 54 249 2.6 4.3 0.00 0.00 0.00 58 951.5
20260502012903 54 255 2.6 4.3 0.00 0.00 0.00 58 951.5
20260502012404 54 258 2.6 5.2 0.00 0.00 0.00 58 951.5
20260502011403 55 254 1.7 5.2 0.00 0.00 0.00 60 951.5
20260502010404 55 242 1.7 4.3 0.00 0.00 0.00 62 951.5
20260502005904 55 243 1.7 4.3 0.00 0.00 0.00 62 951.5
20260502005404 56 243 1.7 4.3 0.00 0.00 0.00 62 951.6
20260502004904 56 237 1.7 2.6 0.00 0.00 0.00 62 951.6
20260502004403 56 234 2.6 4.3 0.00 0.00 0.00 61 951.6
20260502003404 56 236 1.7 4.3 0.00 0.00 0.00 61 951.6
20260502002903 56 238 1.7 4.3 0.00 0.00 0.00 60 951.6
20260502002403 56 230 0.0 1.7 0.00 0.00 0.00 59 951.6
20260502001404 57 228 0.0 1.7 0.00 0.00 0.00 59 951.6
20260502000904 57 228 0.0 1.7 0.00 0.00 0.00 58 951.7
20260502000404 57 228 1.7 1.7 0.00 0.00 0.00 58 951.7
20260501235903 57 228 1.7 2.6 0.00 0.00 0.00 58 951.7
20260501233903 58 242 0.0 2.6 0.00 0.00 0.00 57 951.7
20260501233404 58 113 0.0 1.7 0.00 0.00 0.00 57 951.7
20260501232903 58 113 0.0 1.7 0.00 0.00 0.00 56 951.7
20260501232404 58 114 1.7 2.6 0.00 0.00 0.00 56 951.7
20260501231904 58 113 1.7 5.2 0.00 0.00 0.00 56 951.7
20260501231403 58 112 1.7 5.2 0.00 0.00 0.00 56 951.7
20260501230904 58 109 1.7 1.7 0.00 0.00 0.00 55 951.7
20260501230405 58 223 1.7 4.3 0.00 0.00 0.00 53 951.7
20260501225903 58 223 1.7 4.3 0.00 0.00 0.00 52 951.7
20260501225404 58 223 0.0 4.3 0.00 0.00 0.00 52 951.6
20260501224904 58 221 0.0 1.7 0.00 0.00 0.00 52 951.6
20260501223404 58 220 0.9 4.3 0.00 0.00 0.00 45 951.7
20260501222904 59 196 0.9 2.6 0.00 0.00 0.00 44 951.7
20260501222403 59 228 1.7 1.7 0.00 0.00 0.00 44 951.7
20260501221404 59 228 1.7 2.6 0.00 0.00 0.00 43 951.7
20260501220904 59 229 1.7 2.6 0.00 0.00 0.00 42 951.7
20260501220403 60 229 1.7 2.6 0.00 0.00 0.00 43 951.7
20260501215904 60 230 1.7 4.3 0.00 0.00 0.00 42 951.7
20260501215404 60 229 1.7 4.3 0.00 0.00 0.00 41 951.7
20260501214903 60 237 1.7 4.3 0.00 0.00 0.00 41 951.7